We konden geen weer-waarchuwingen ophalen. Ga rechtstreeks naar de Meteoalarm site : www.meteoalarm.eu en controleer daar .



Onweer radar Meer informatie blitzortung!


Regen radar Meer informatie rain snow radar


Bezoek onze andere website:

Template documentation
and downloads

And another site



15 daagse weersverwachting Luzern (CH)

  • Overzicht
  • Per uur
  • 15 dagen
  • Extra
  • Vergelijk
  • Kaarten
  • Dagkaart
  • Meer »
  • Info
  • Statistieken
  • Directe link
    Temp 6h Neerslag Wind  
 06:29     20:32    Daglengte: 14:03 Vandaag
02:00
18°
 
1
08:00
18°
 
1
14:00
21°
 
1
20:00
19°
37.9 mm
1
warningclass
 06:31     20:30    Daglengte: 13:59 Morgen
02:00
18°
63.4 mm
1
warningclass
08:00
17°
98.2 mm
2
warningclass
14:00
19°
112.3 mm
2
20:00
20°
22.3 mm
2
 06:32     20:29    Daglengte: 13:57 Zaterdag 20 Aug
02:00
18°
135.4 mm
1
08:00
18°
74.9 mm
1
14:00
21°
112.6 mm
2
20:00
20°
187.7 mm
1
Locatie info
Region: Luzern-Stadt
Latitude: 47.0495°N
Longitude: 8.3044°E
437 masl
Postcode: 6003
Temp/Neerslag /Baro Onweer/Dauwpunt
    Temp Baro 1h Neerslag Dauwpunt Wind UV Bewolking  
 06:29     20:32    Daglengte: 14:03 Vandaag
02:00
18°
1014.8 hPa
48%
15.2°
1
Windvlaag: 0.9 m/s
22%
03:00
18°
1014.3 hPa
14%
14.6°
1
Windvlaag: 0.7 m/s
39%
04:00
17°
1014.1 hPa
14%
14.3°
1
Windvlaag: 1.2 m/s
49%
05:00
17°
1013.6 hPa
14%
14.5°
1
Windvlaag: 1.2 m/s
60%
06:00
17°
1013.0 hPa
14%
14.6°
1
Windvlaag: 0.3 m/s
86%
07:00
17°
1013.2 hPa
54%
14.6°
1
Windvlaag: -0.3 m/s
86%
08:00
18°
1013.4 hPa
61%
15.2°
1
Windvlaag: 0 m/s
86%
09:00
18°
1013.5 hPa
63%
16.2°
1
Windvlaag: -0.3 m/s
86%
10:00
19°
1013.4 hPa
58%
16.4°
1
Windvlaag: -0.8 m/s
86%
11:00
19°
1013.7 hPa
35%
17.1°
1
Windvlaag: -1.3 m/s
86%
12:00
20°
1013.5 hPa
82%
17.6°
1
Windvlaag: -1.4 m/s
86%
13:00
20°
1013.3 hPa
82%
17.7°
1
Windvlaag: -0.6 m/s
86%
14:00
21°
1013.0 hPa
81%
17.6°
1
Windvlaag: 0.4 m/s
86%
15:00
21°
1012.8 hPa 6.1 mm
82%
17.2°
2
Windvlaag: 2 m/s
86%
16:00
21°
1012.3 hPa 6.4 mm
82%
16.1°
1
Windvlaag: 2.2 m/s
86%
17:00
21°
1011.9 hPa
82%
15.4°
1
Windvlaag: 2.8 m/s
83%
18:00
20°
1011.6 hPa 8.2 mm
82%
14.3°
1
Windvlaag: 2 m/s
63%
19:00
20°
1012.2 hPa 8.3 mm
82%
15.5°
1
Windvlaag: -0.2 m/s
62% warningclass
20:00
19°
1012.5 hPa 8.9 mm
82%
17.5°
1
Windvlaag: 0.4 m/s
74% warningclass
21:00
19°
1012.8 hPa 9.4 mm
82%
17.4°
1
Windvlaag: -0.2 m/s
86% warningclass
22:00
19°
1013.1 hPa 9.9 mm
82%
17.0°
1
Windvlaag: -0.9 m/s
86% warningclass
23:00
18°
1013.4 hPa 10.6 mm
82%
16.7°
1
Windvlaag: -0.7 m/s
86% warningclass
 06:31     20:30    Daglengte: 13:59 Morgen
00:00
18°
1013.5 hPa 10.6 mm
82%
16.9°
1
Windvlaag: -1.1 m/s
86% warningclass
01:00
18°
1013.4 hPa 11.1 mm
82%
17.0°
1
Windvlaag: -0.2 m/s
86% warningclass
02:00
18°
1013.3 hPa 11.6 mm
82%
16.7°
1
Windvlaag: 0.8 m/s
86% warningclass
03:00
18°
1013.3 hPa 16.7 mm
82%
16.5°
2
Windvlaag: 1.5 m/s
86% warningclass
04:00
17°
1013.4 hPa 18.1 mm
82%
16.4°
2
Windvlaag: 1 m/s
86% warningclass
05:00
18°
1013.3 hPa 15.9 mm
82%
16.5°
2
Windvlaag: 1.9 m/s
86% warningclass
06:00
18°
1013.5 hPa 14.7 mm
82%
16.4°
2
Windvlaag: 1.9 m/s
86% warningclass
07:00
17°
1014.0 hPa 15.9 mm
82%
16.1°
2
Windvlaag: 1.4 m/s
86% warningclass
08:00
17°
1014.5 hPa 16.9 mm
82%
16.0°
2
Windvlaag: 1.1 m/s
86% warningclass
09:00
18°
1015.0 hPa 15.0 mm
79%
16.4°
2
Windvlaag: 0.6 m/s
80%
10:00
18°
1015.4 hPa 15.9 mm
82%
17.0°
2
Windvlaag: 0 m/s
83%
11:00
18°
1015.9 hPa 18.2 mm
82%
17.2°
2
Windvlaag: -0.2 m/s
83%
12:00
19°
1016.2 hPa 19.9 mm
82%
17.4°
2
Windvlaag: -0.4 m/s
86%
13:00
19°
1016.5 hPa 21.2 mm
82%
17.4°
2
Windvlaag: 0.3 m/s
76%
14:00
19°
1016.7 hPa 22.2 mm
82%
17.9°
2
Windvlaag: 2.3 m/s
80%
15:00
19°
1016.8 hPa 22.3 mm
82%
17.7°
2
Windvlaag: 2.7 m/s
54%
16:00
20°
1016.6 hPa
77%
17.7°
2
Windvlaag: 3.8 m/s
37%
17:00
20°
1016.5 hPa
79%
17.6°
2
Windvlaag: 4.4 m/s
29%
18:00
21°
1016.6 hPa
81%
18.0°
2
Windvlaag: 4.9 m/s
19%
19:00
21°
1017.0 hPa
76%
17.8°
2
Windvlaag: 4.1 m/s
13%
20:00
20°
1017.3 hPa
68%
17.3°
2
Windvlaag: 3 m/s
18%
21:00
19°
1017.9 hPa
22%
16.3°
1
Windvlaag: 0.5 m/s
56%
22:00
19°
1018.3 hPa
70%
15.8°
1
Windvlaag: 1 m/s
27%
23:00
18°
1018.6 hPa 22.5 mm
92%
13.2°
1
Windvlaag: 1.7 m/s
84%
 06:32     20:29    Daglengte: 13:57 Zaterdag 20 Aug
00:00
18°
1018.7 hPa 37.7 mm
79%
13.3°
1
Windvlaag: 2.1 m/s
68%
01:00
18°
1018.6 hPa 37.6 mm
33%
13.1°
1
Windvlaag: 2.6 m/s
60%
02:00
18°
1018.5 hPa 37.6 mm
32%
12.8°
1
Windvlaag: 2.5 m/s
61%
03:00
17°
1018.5 hPa 37.5 mm
29%
12.1°
1
Windvlaag: 2 m/s
55%
04:00
17°
1018.4 hPa 37.4 mm
26%
11.9°
1
Windvlaag: 0.8 m/s
47%
05:00
17°
1018.3 hPa
24%
11.9°
1
Windvlaag: 1.9 m/s
51%
06:00
16°
1018.3 hPa
21%
11.5°
1
Windvlaag: 1.7 m/s
30%
07:00
17°
1018.5 hPa
21%
11.5°
2
Windvlaag: 2.3 m/s
56%
08:00
18°
1018.8 hPa
25%
11.7°
1
Windvlaag: 6.2 m/s
15%
09:00
19°
1019.1 hPa
24%
12.4°
1
Windvlaag: 6.6 m/s
18%
10:00
20°
1019.1 hPa
30%
14.5°
1
Windvlaag: 6.4 m/s
61%
11:00
20°
1019.0 hPa
80%
16.6°
2
Windvlaag: 5.2 m/s
68%
12:00
20°
1019.0 hPa 37.5 mm
80%
16.8°
2
Windvlaag: 3.5 m/s
66%
13:00
21°
1019.0 hPa 37.6 mm
84%
16.4°
2
Windvlaag: 3.4 m/s
56%
14:00
21°
1018.8 hPa 37.5 mm
94%
15.6°
2
Windvlaag: 3.2 m/s
85%
15:00
21°
1018.7 hPa 37.7 mm
99%
14.1°
1
Windvlaag: 2.8 m/s
91%
16:00
22°
1018.2 hPa 37.5 mm
97%
14.0°
1
Windvlaag: 3.4 m/s
43%
17:00
22°
1018.0 hPa
100%
13.8°
1
Windvlaag: 3.6 m/s
85%
18:00
22°
1018.1 hPa 37.5 mm
100%
14.3°
2
Windvlaag: 3.7 m/s
61%
19:00
21°
1018.4 hPa 37.6 mm
99%
14.3°
2
Windvlaag: 4 m/s
60%
20:00
20°
1018.9 hPa 37.5 mm
97%
16.0°
1
Windvlaag: 3.6 m/s
17%
21:00
19°
1019.4 hPa 38.2 mm
94%
14.9°
1
Windvlaag: 3.4 m/s
21% warningclass
22:00
18°
1019.4 hPa 37.8 mm
94%
15.0°
1
Windvlaag: 2.2 m/s
22%
23:00
18°
1019.2 hPa 37.7 mm
94%
14.9°
1
Windvlaag: 2.6 m/s
15%
 06:33     20:27    Daglengte: 13:54 Zondag 21 Aug
00:00
17°
1019.2 hPa 37.7 mm
96%
14.2°
1
Windvlaag: 2.6 m/s
14%
01:00
17°
1019.1 hPa 37.6 mm
88%
13.6°
1
Windvlaag: 2.9 m/s
12%
Temp/Neerslag /Baro Onweer/Dauwpunt
    Temp Baro Neerslag Dauwpunt Wind Bewolking  
 06:29     20:32    Daglengte: 14:03 Vandaag
02:00
18°
1014.8 hPa   15.2°
1
22%
05:00
17°
1013.6 hPa   14.5°
1
60%
08:00
18°
1013.4 hPa   15.2°
1
86%
11:00
19°
1013.7 hPa   17.1°
1
86%
14:00
21°
1013.0 hPa   17.6°
1
86%
17:00
21°
1011.9 hPa 12.5 mm 15.4°
1
83%
20:00
19°
1012.5 hPa 25.3 mm 17.5°
1
74% warningclass
23:00
18°
1013.4 hPa 29.9 mm 16.7°
1
86% warningclass
 06:31     20:30    Daglengte: 13:59 Morgen
02:00
18°
1013.3 hPa 33.4 mm 16.7°
1
86% warningclass
05:00
18°
1013.3 hPa 50.6 mm 16.5°
2
86% warningclass
08:00
17°
1014.5 hPa 47.6 mm 16.0°
2
86% warningclass
11:00
18°
1015.9 hPa 49.1 mm 17.2°
2
83%
14:00
19°
1016.7 hPa 63.3 mm 17.9°
2
80%
17:00
20°
1016.5 hPa 22.3 mm 17.6°
2
29%
20:00
20°
1017.3 hPa   17.3°
2
18%
23:00
18°
1018.6 hPa 22.5 mm 13.2°
1
84%
 06:32     20:29    Daglengte: 13:57 Zaterdag 20 Aug
02:00
18°
1018.5 hPa 112.8 mm 12.8°
1
61%
05:00
17°
1018.3 hPa 74.9 mm 11.9°
1
51%
08:00
18°
1018.8 hPa   11.7°
1
15%
11:00
20°
1019.0 hPa   16.6°
2
68%
14:00
21°
1018.8 hPa 112.6 mm 15.6°
2
85%
17:00
22°
1018.0 hPa 75.2 mm 13.8°
1
85%
20:00
20°
1018.9 hPa 112.5 mm 16.0°
1
17%
23:00
18°
1019.2 hPa 113.8 mm 14.9°
1
15%
 06:33     20:27    Daglengte: 13:54 Zondag 21 Aug
02:00
16°
1018.8 hPa 113.0 mm 13.0°
1
12%
05:00
15°
1017.4 hPa 96.9 mm 14.1°
1
1%
08:00
16°
1017.5 hPa 96.9 mm 15.1°
0
1%
11:00
19°
1016.7 hPa 97.1 mm 17.0°
1
1%
14:00
20°
1015.9 hPa 99.0 mm 17.2°
2
1%
17:00
20°
1015.8 hPa 102.1 mm 17.3°
0
1%
20:00
16°
1016.6 hPa 102.9 mm 14.3°
2
1%
23:00
15°
1017.8 hPa 103.3 mm 13.7°
2
1%
 06:35     20:25    Daglengte: 13:50 Maandag 22 Aug
02:00
15°
1016.7 hPa 103.3 mm 12.9°
1
1%
05:00
14°
1016.8 hPa 103.3 mm 12.1°
1
1%
08:00
15°
1017.3 hPa 103.3 mm 13.3°
1
1%
11:00
20°
1016.6 hPa 103.3 mm 13.8°
2
0%
14:00
22°
1016.0 hPa 103.4 mm 14.0°
3
0%
17:00
22°
1015.6 hPa 103.5 mm 17.1°
1
1%
20:00
19°
1016.2 hPa 103.5 mm 14.9°
0
1%
23:00
15°
1017.5 hPa 103.5 mm 13.2°
2
0%
 06:36     20:23    Daglengte: 13:47 Dinsdag 23 Aug
02:00
14°
1017.6 hPa 103.5 mm 11.5°
2
0%
05:00
13°
1018.2 hPa 103.5 mm 10.7°
1
0%
08:00
15°
1018.6 hPa 103.5 mm 11.4°
1
0%
11:00
21°
1017.7 hPa 103.5 mm 12.6°
2
0%
14:00
24°
1016.7 hPa 103.5 mm 12.1°
3
0%
17:00
24°
1016.0 hPa 103.5 mm 11.8°
3
0%
20:00
18°
1016.7 hPa 103.5 mm 14.5°
1
0%
23:00
15°
1018.1 hPa 103.5 mm 12.3°
2
0%
 06:37     20:21    Daglengte: 13:44 Woensdag 24 Aug
02:00
14°
1017.8 hPa 103.5 mm 11.4°
1
0%
05:00
13°
1017.6 hPa 103.5 mm 11.1°
1
1%
08:00
15°
1017.9 hPa 103.5 mm 12.0°
0
0%
11:00
21°
1017.3 hPa 103.5 mm 13.3°
2
0%
14:00
24°
1016.5 hPa 103.5 mm 14.1°
2
0%
17:00
25°
1016.1 hPa 103.5 mm 14.5°
2
0%
20:00
19°
1016.7 hPa 103.5 mm 15.4°
0
0%
23:00
16°
1018.0 hPa   13.8°
2
0%
 06:39     20:19    Daglengte: 13:40 Donderdag 25 Aug
02:00
16°
1017.8 hPa 207.0 mm 13.3°
1
0%
08:00
17°
1018.1 hPa 207.0 mm 14.0°
0
0%
14:00
26°
1016.5 hPa 207.0 mm 15.9°
2
0%
20:00
21°
1016.4 hPa 207.3 mm 17.7°
1
0%
 06:40     20:18    Daglengte: 13:38 Vrijdag 26 Aug
02:00
18°
1017.4 hPa 207.4 mm 14.2°
2
0%
08:00
19°
1016.8 hPa 207.4 mm 14.7°
1
1%
14:00
28°
1014.6 hPa 207.5 mm 16.5°
2
0%
20:00
22°
1014.1 hPa 209.2 mm 18.2°
1
1%
 06:41     20:16    Daglengte: 13:35 Zaterdag 27 Aug
02:00
18°
1015.7 hPa 210.2 mm 15.0°
2
1%
08:00
18°
1016.7 hPa 212.2 mm 15.6°
1
1%
14:00
28°
1015.8 hPa 212.5 mm 16.8°
2
1%
20:00
21°
1018.4 hPa 1.8 mm 17.4°
1
58%
 06:42     20:14    Daglengte: 13:32 Zondag 28 Aug
02:00
18°
1019.8 hPa 0.9 mm 15.1°
1
61%
08:00
19°
1020.0 hPa 0.5 mm 15.8°
1
59%
14:00
26°
1018.8 hPa 0.9 mm 17.7°
2
52%
20:00
21°
1019.4 hPa 2.0 mm 17.6°
1
59%
 06:44     20:12    Daglengte: 13:28 Maandag 29 Aug
02:00
18°
1020.6 hPa 0.4 mm 15.0°
1
61%
08:00
18°
1020.5 hPa 1.1 mm 15.5°
1
53%
14:00
26°
1019.2 hPa 1.3 mm 17.4°
2
51%
20:00
20°
1019.2 hPa 2.1 mm 17.0°
1
64%
 06:45     20:10    Daglengte: 13:25 Dinsdag 30 Aug
02:00
17°
1020.3 hPa 0.8 mm 14.2°
2
59%
08:00
18°
1020.1 hPa 0.5 mm 14.7°
1
53%
14:00
25°
1018.3 hPa 0.3 mm 16.6°
2
50%
20:00
20°
1018.4 hPa 2.3 mm 16.5°
0
61%
 06:46     20:08    Daglengte: 13:22 Woensdag 31 Aug
02:00
17°
1019.5 hPa 0.2 mm 13.9°
1
47%
08:00
17°
1019.0 hPa 0.5 mm 14.4°
1
49%
14:00
25°
1017.1 hPa 0.7 mm 16.0°
2
49%
20:00
19°
1017.5 hPa 2.0 mm 15.9°
0
56%
 06:48     20:06    Daglengte: 13:18 Donderdag 01 Sep
02:00
16°
1018.9 hPa 1.2 mm 13.6°
1
52%
08:00
16°
1019.0 hPa 0.7 mm 13.7°
1
50%
14:00
24°
1017.3 hPa 0.8 mm 15.5°
2
45%
20:00
18°
1017.9 hPa 1.4 mm 15.0°
0
52%
  CAPE Lifted Index Hail Supercell Tornado SRH 3km CL BTM PRES CL TOP PRES Swiss DWD icon SMHI TS
 06:29     20:32    Daglengte: 14:03 Vandaag
02:00 8 J/kg -0.5 K 0 % 0 % 0 % 0 m²/s² 0 0 0.13 2
03:00 2 J/kg -1.0 K 0 % 0 % 0 % 0 m²/s² 0 0 -1 3
04:00 0 J/kg 0.4 K 0 % 0 % 0 % 0 m²/s² 0 0 0.49 3
05:00 0 J/kg 0.0 K 0 % 0 % 0 % 0 m²/s² 0 0 0 3
06:00 0 J/kg -0.4 K 0 % 0 % 0 % 0 m²/s² 0 0 0.62 3
07:00 4 J/kg 0.5 K 0 % 0 % 0 % 0 m²/s² 0 0 2.18 3
08:00 7 J/kg 0.2 K 0 % 0 % 0 % 0 m²/s² 0 0 1.49 3
09:00 16 J/kg 0.5 K 0 % 0 % 0 % 0 m²/s² 0 0 1.58 3
10:00 12 J/kg 0.1 K 0 % 0 % 0 % 0 m²/s² 0 0 1 3
11:00 55 J/kg -0.2 K 0 % 0 % 0 % 0 m²/s² 0 0 0.37 3
12:00 134 J/kg -1.0 K 0 % 0 % 0 % 0 m²/s² 0 0 0.38 3
13:00 107 J/kg -0.7 K 0 % 0 % 0 % 0 m²/s² 0 0 0.98 3
14:00 110 J/kg 0.1 K 0 % 0 % 0 % 0 m²/s² 0 0 1.12 3
15:00 330 J/kg -2.1 K 0 % 0 % 0 % 0 m²/s² 0 0 -1.29 3
16:00 336 J/kg -1.8 K 0 % 0 % 0 % 0 m²/s² 0 0 -1.8 80
17:00 206 J/kg -1.1 K 0 % 0 % 0 % 0 m²/s² 0 0 -0.8 3
18:00 339 J/kg -2.1 K 0 % 0 % 0 % 0 m²/s² 0 0 -0.81 80
19:00 508 J/kg -2.0 K 0 % 0 % 0 % 0 m²/s² 0 0 -1.88 95
20:00 530 J/kg -2.3 K 0 % 0 % 0 % 0 m²/s² 0 0 -2.12 95
21:00 302 J/kg -1.4 K 0 % 0 % 0 % 0 m²/s² 0 0 -1.4 95
22:00 309 J/kg -1.4 K 0 % 0 % 0 % 0 m²/s² 0 0 -1.37 95
23:00 305 J/kg -1.3 K 0 % 0 % 0 % 0 m²/s² 0 0 -1.21 95
 06:31     20:30    Daglengte: 13:59 Morgen
00:00 254 J/kg -1.1 K 0 % 0 % 0 % 0 m²/s² 0 0 -0.62 95
01:00 233 J/kg -1.3 K 0 % 0 % 0 % 0 m²/s² 0 0 0.02 95
02:00 176 J/kg -1.4 K 0 % 0 % 0 % 0 m²/s² 0 0 0.1 95
03:00 89 J/kg -1.2 K 0 % 0 % 0 % 0 m²/s² 0 0 -0.18 95
04:00 95 J/kg -1.1 K 0 % 0 % 0 % 0 m²/s² 0 0 -1.01 95
05:00 27 J/kg -1.1 K 0 % 0 % 0 % 0 m²/s² 0 0 -0.62 95
06:00 0 J/kg -1.1 K 0 % 0 % 0 % 0 m²/s² 0 0 0.01 95
07:00 0 J/kg -1.0 K 0 % 0 % 0 % 0 m²/s² 0 0 -0.34 95
08:00 0 J/kg -0.4 K 0 % 0 % 0 % 0 m²/s² 0 0 -0.37 95
09:00 0 J/kg 0.7 K 0 % 0 % 0 % 0 m²/s² 0 0 0.73 61
10:00 4 J/kg 1.3 K 0 % 0 % 0 % 0 m²/s² 0 0 1.3 80
11:00 16 J/kg 0.1 K 0 % 0 % 0 % 0 m²/s² 0 0 0.1 80
12:00 40 J/kg -0.1 K 0 % 0 % 0 % 0 m²/s² 0 0 -0.1 80
13:00 135 J/kg -1.2 K 0 % 0 % 0 % 0 m²/s² 0 0 -1.2 61
14:00 294 J/kg -1.7 K 0 % 0 % 0 % 0 m²/s² 0 0 -1.7 80
15:00 442 J/kg -1.7 K 0 % 0 % 0 % 0 m²/s² 0 0 -1.7 80
16:00 397 J/kg -1.5 K 0 % 0 % 0 % 0 m²/s² 0 0 -1.5 3
17:00 300 J/kg -1.8 K 0 % 0 % 0 % 0 m²/s² 0 0 -1.77 80
18:00 352 J/kg -1.9 K 0 % 0 % 0 % 0 m²/s² 0 0 -1.78 2
19:00 572 J/kg -2.4 K 0 % 0 % 0 % 0 m²/s² 0 0 -1.68 80
20:00 494 J/kg -1.9 K 0 % 0 % 0 % 0 m²/s² 0 0 -1.09 2
21:00 146 J/kg 0.6 K 0 % 0 % 0 % 0 m²/s² 0 0 1.56 3
22:00 71 J/kg 1.2 K 0 % 0 % 0 % 0 m²/s² 0 0 2.4 2
23:00 39 J/kg 1.7 K 0 % 0 % 0 % 0 m²/s² 0 0 3.02 2
 06:32     20:29    Daglengte: 13:57 Zaterdag 20 Aug
00:00 6 J/kg 2.4 K 0 % 0 % 0 % 0 m²/s² 0 0 3.51 2
01:00 0 J/kg 2.4 K 0 % 0 % 0 % 0 m²/s² 0 0 3.93 2
02:00 0 J/kg 2.3 K 0 % 0 % 0 % 0 m²/s² 0 0 3.62 2
03:00 0 J/kg 1.9 K 0 % 0 % 0 % 0 m²/s² 0 0 3.28 3
04:00 0 J/kg 2.3 K 0 % 0 % 0 % 0 m²/s² 0 0 4.01 3
05:00 0 J/kg 1.9 K 0 % 0 % 0 % 0 m²/s² 0 0 3.37 3
06:00 0 J/kg 1.4 K 0 % 0 % 0 % 0 m²/s² 0 0 3.05 2
07:00 0 J/kg 1.4 K 0 % 0 % 0 % 0 m²/s² 0 0 3.05 1
08:00 0 J/kg 1.2 K 0 % 0 % 0 % 0 m²/s² 0 0 2.52 2
09:00 19 J/kg 1.5 K 0 % 0 % 0 % 0 m²/s² 0 0 2.7 1
10:00 43 J/kg 1.0 K 0 % 0 % 0 % 0 m²/s² 0 0 1.9 2
11:00 227 J/kg -0.6 K 0 % 0 % 0 % 0 m²/s² 0 0 -0.09 2
12:00 193 J/kg -0.9 K 0 % 0 % 0 % 0 m²/s² 0 0 -0.54 3
13:00 387 J/kg -1.4 K 0 % 0 % 0 % 0 m²/s² 0 0 -0.83 80
14:00 481 J/kg -1.6 K 0 % 0 % 0 % 0 m²/s² 0 0 -0.73 3
15:00 621 J/kg -2.1 K 0 % 0 % 0 % 0 m²/s² 0 0 -1.2 80
16:00 655 J/kg -2.3 K 0 % 0 % 0 % 0 m²/s² 0 0 -0.14 3
17:00 704 J/kg -2.4 K 0 % 0 % 0 % 0 m²/s² 0 0 0.6 3
18:00 740 J/kg -2.5 K 0 % 0 % 0 % 0 m²/s² 0 0 0.56 3
19:00 799 J/kg -2.7 K 0 % 0 % 0 % 0 m²/s² 0 0 -0.6 80
20:00 881 J/kg -3.1 K 0 % 0 % 0 % 0 m²/s² 0 0 -0.37 2
21:00 688 J/kg -2.4 K 0 % 0 % 0 % 0 m²/s² 0 0 1.11 95
22:00 532 J/kg -1.8 K 0 % 0 % 0 % 0 m²/s² 0 0 1.98 80
23:00 338 J/kg -1.1 K 0 % 0 % 0 % 0 m²/s² 0 0 3.94 2
 06:33     20:27    Daglengte: 13:54 Zondag 21 Aug
00:00 201 J/kg -0.5 K 0 % 0 % 0 % 0 m²/s² 0 0 4.93 80
01:00 53 J/kg 0.3 K 0 % 0 % 0 % 0 m²/s² 0 0 6.36 2
Temp Baro Wind Neerslag
  EWN Forecast EWN WRFDA DWD ICON FMI HIRLAM MET Norway GFS
 06:29     20:32    Daglengte: 14:03 Vandaag
02:00 18.5° 1014.8 hPa 1.0 m/s 0.0 mm 16.8° 1013.4 hPa 1.6 m/s 23.6 mm 18.6° 1013.3 hPa 0.7 m/s -1.6 mm 20.0° 1017.0 hPa 2.8 m/s 0.0 mm 17.4° 1014.8 hPa 0.6 m/s
05:00 17.1° 1013.6 hPa 1.0 m/s 0.0 mm 16.7° 1011.4 hPa 1.5 m/s 79.9 mm 16.5° 1012.4 hPa 1.1 m/s 0.0 mm 18.7° 1016.9 hPa 1.0 m/s 0.0 mm 16.6° 1014.1 hPa 0.7 m/s
08:00 17.6° 1013.4 hPa 0.9 m/s 0.0 mm 16.6° 1010.5 hPa 1.8 m/s 87.6 mm 17.6° 1013.2 hPa 0.9 m/s 0.0 mm 18.7° 1015.3 hPa 1.1 m/s 0.0 mm 16.9° 1014.3 hPa 0.3 m/s
11:00 19.3° 1013.7 hPa 1.4 m/s 0.0 mm 18.9° 1012.4 hPa 0.8 m/s 89.3 mm 19.5° 1013.5 hPa 1.5 m/s 0.0 mm 20.1° 1015.2 hPa 1.5 m/s 0.0 mm 19.8° 1013.5 hPa 2.0 m/s
14:00 20.9° 1013.0 hPa 1.4 m/s 0.0 mm 22.1° 1009.3 hPa 2.2 m/s 89.5 mm 21.0° 1012.6 hPa 1.3 m/s 0.1 mm 21.4° 1014.2 hPa 1.9 m/s 0.0 mm 21.3° 1012.6 hPa 1.7 m/s
17:00 20.8° 1011.9 hPa 1.4 m/s 12.5 mm 19.7° 1009.6 hPa 4.0 m/s 91.7 mm 20.6° 1012.1 hPa 0.6 m/s 0.5 mm 24.1° 1011.9 hPa 3.1 m/s 0.0 mm 19.9° 1012.6 hPa 1.5 m/s
20:00 19.3° 1012.5 hPa 1.3 m/s 25.3 mm 19.8° 1008.3 hPa 2.0 m/s 95.6 mm 19.0° 1012.5 hPa 1.1 m/s 4.6 mm 21.5° 1013.0 hPa 2.5 m/s 0.0 mm 18.1° 1012.9 hPa 1.2 m/s
23:00 18.4° 1013.4 hPa 1.0 m/s 29.9 mm 18.2° 1009.6 hPa 1.9 m/s 124.0 mm 18.1° 1013.4 hPa 0.9 m/s 7.1 mm 21.0° 1013.9 hPa 1.4 m/s 0.0 mm 17.4° 1013.7 hPa 1.0 m/s
 06:31     20:30    Daglengte: 13:59 Morgen
02:00 18.0° 1013.3 hPa 1.4 m/s 33.4 mm 17.6° 1009.5 hPa 2.2 m/s 139.2 mm 17.8° 1013.5 hPa 1.4 m/s 6.3 mm 20.1° 1013.6 hPa 2.0 m/s 0.0 mm 16.5° 1013.8 hPa 0.9 m/s
05:00 17.6° 1013.3 hPa 1.6 m/s 50.6 mm 16.9° 1009.3 hPa 4.5 m/s 166.9 mm 17.5° 1013.4 hPa 1.5 m/s 28.2 mm 19.1° 1013.7 hPa 1.7 m/s 0.0 mm 16.2° 1013.1 hPa 0.8 m/s
08:00 17.4° 1014.5 hPa 2.1 m/s 47.6 mm 16.3° 1010.3 hPa 5.6 m/s 185.1 mm 17.4° 1014.9 hPa 1.9 m/s 10.1 mm 19.1° 1014.4 hPa 1.9 m/s 0.0 mm 16.2° 1013.8 hPa 1.5 m/s
11:00 18.3° 1015.9 hPa 1.8 m/s 49.1 mm 16.7° 1012.3 hPa 4.7 m/s 220.9 mm 18.7° 1016.4 hPa 1.4 m/s 1.9 mm 19.2° 1015.0 hPa 2.3 m/s 0.0 mm 16.5° 1015.9 hPa 1.5 m/s
14:00 19.0° 1016.7 hPa 1.6 m/s 63.3 mm 17.9° 1013.0 hPa 4.4 m/s 297.8 mm 19.5° 1017.2 hPa 1.3 m/s 1.4 mm 19.5° 1015.6 hPa 2.2 m/s 0.0 mm 17.1° 1016.8 hPa 1.4 m/s
17:00 20.4° 1016.5 hPa 2.3 m/s 22.3 mm 18.5° 1014.6 hPa 1.9 m/s 328.5 mm 20.8° 1016.8 hPa 1.4 m/s 1.0 mm 21.1° 1015.5 hPa 3.1 m/s 0.0 mm 17.8° 1017.5 hPa 1.9 m/s
20:00 19.9° 1017.3 hPa 1.5 m/s 0.0 mm 20.0° 1014.8 hPa 2.4 m/s 335.8 mm 19.6° 1017.9 hPa 1.2 m/s 0.7 mm 21.4° 1016.6 hPa 3.1 m/s 0.0 mm 17.4° 1017.7 hPa 1.8 m/s
23:00 18.3° 1018.6 hPa 0.8 m/s 22.5 mm 19.3° 1016.4 hPa 3.4 m/s 336.1 mm 18.2° 1018.8 hPa 0.5 m/s 0.1 mm 16.2° 1019.1 hPa 2.2 m/s
 06:32     20:29    Daglengte: 13:57 Zaterdag 20 Aug
02:00 17.6° 1018.5 hPa 1.3 m/s 112.8 mm 17.5° 1016.3 hPa 3.3 m/s 336.1 mm 18.1° 1018.7 hPa 0.5 m/s 0.1 mm 16.3° 1018.8 hPa 2.0 m/s
05:00 16.5° 1018.3 hPa 1.1 m/s 74.9 mm 15.9° 1016.2 hPa 3.1 m/s 336.1 mm 17.7° 1018.4 hPa 0.6 m/s 0.0 mm 15.2° 1018.3 hPa 1.9 m/s
08:00 17.9° 1018.8 hPa 1.2 m/s 0.0 mm 19.2° 1016.9 hPa 2.6 m/s 336.1 mm 17.5° 1019.3 hPa 0.9 m/s 0.0 mm 16.9° 1018.4 hPa 1.5 m/s
11:00 20.5° 1019.0 hPa 2.2 m/s 0.0 mm 19.4° 1018.6 hPa 4.2 m/s 336.2 mm 20.7° 1019.1 hPa 1.7 m/s 0.0 mm 21.6° 1017.7 hPa 1.6 m/s
14:00 21.2° 1018.8 hPa 1.8 m/s 112.6 mm 21.1° 1017.8 hPa 2.1 m/s 336.5 mm 21.2° 1019.0 hPa 1.7 m/s 0.6 mm 21.7° 1018.4 hPa 2.0 m/s
17:00 21.8° 1018.0 hPa 1.4 m/s 75.2 mm 22.9° 1017.0 hPa 2.5 m/s 336.5 mm 21.5° 1018.3 hPa 1.1 m/s 0.6 mm 21.5° 1017.7 hPa 0.6 m/s
20:00 19.7° 1018.9 hPa 1.0 m/s 112.5 mm 19.9° 1017.0 hPa 1.7 m/s 336.5 mm 19.7° 1019.4 hPa 0.8 m/s 0.5 mm 18.2° 1018.3 hPa 0.3 m/s
23:00 17.8° 1019.2 hPa 1.0 m/s 113.8 mm 18.2° 1017.0 hPa 2.5 m/s 337.1 mm 17.7° 1019.8 hPa 0.7 m/s 2.1 mm 15.5° 1019.9 hPa 1.5 m/s
 06:33     20:27    Daglengte: 13:54 Zondag 21 Aug
02:00 16.3° 1018.8 hPa 1.1 m/s 113.0 mm 15.7° 1016.6 hPa 2.5 m/s 337.2 mm 16.4° 1019.4 hPa 0.8 m/s 0.9 mm 15.0° 1019.2 hPa 1.4 m/s
05:00 15.2° 1017.4 hPa 1.1 m/s 96.9 mm 15.2° 1017.4 hPa 1.1 m/s 96.9 mm
08:00 16.2° 1017.5 hPa 0.2 m/s 96.9 mm 16.2° 1017.5 hPa 0.2 m/s 96.9 mm
11:00 18.8° 1016.7 hPa 1.0 m/s 97.1 mm 18.8° 1016.7 hPa 1.0 m/s 97.1 mm
14:00 20.4° 1015.9 hPa 1.6 m/s 99.0 mm 20.4° 1015.9 hPa 1.6 m/s 99.0 mm
17:00 19.8° 1015.8 hPa 0.4 m/s 102.1 mm 19.8° 1015.8 hPa 0.4 m/s 102.1 mm
20:00 16.3° 1016.6 hPa 2.0 m/s 102.9 mm 16.3° 1016.6 hPa 2.0 m/s 102.9 mm
23:00 15.3° 1017.8 hPa 1.7 m/s 103.3 mm 15.3° 1017.8 hPa 1.7 m/s 103.3 mm
 06:35     20:25    Daglengte: 13:50 Maandag 22 Aug
02:00 14.5° 1016.7 hPa 1.4 m/s 103.3 mm 14.5° 1016.7 hPa 1.4 m/s 103.3 mm
05:00 13.7° 1016.8 hPa 1.2 m/s 103.3 mm 13.7° 1016.8 hPa 1.2 m/s 103.3 mm
08:00 15.3° 1017.3 hPa 0.7 m/s 103.3 mm 15.3° 1017.3 hPa 0.7 m/s 103.3 mm
11:00 20.2° 1016.6 hPa 1.8 m/s 103.3 mm 20.2° 1016.6 hPa 1.8 m/s 103.3 mm
14:00 22.3° 1016.0 hPa 2.6 m/s 103.4 mm 22.3° 1016.0 hPa 2.6 m/s 103.4 mm
17:00 21.7° 1015.6 hPa 0.7 m/s 103.5 mm 21.7° 1015.6 hPa 0.7 m/s 103.5 mm
20:00 18.9° 1016.2 hPa 0.4 m/s 103.5 mm 18.9° 1016.2 hPa 0.4 m/s 103.5 mm
23:00 15.4° 1017.5 hPa 1.9 m/s 103.5 mm 15.4° 1017.5 hPa 1.9 m/s 103.5 mm
 06:36     20:23    Daglengte: 13:47 Dinsdag 23 Aug
02:00 14.0° 1017.6 hPa 1.7 m/s 103.5 mm 14.0° 1017.6 hPa 1.7 m/s 103.5 mm
05:00 12.8° 1018.2 hPa 1.3 m/s 103.5 mm 12.8° 1018.2 hPa 1.3 m/s 103.5 mm
08:00 15.0° 1018.6 hPa 0.8 m/s 103.5 mm 15.0° 1018.6 hPa 0.8 m/s 103.5 mm
11:00 20.5° 1017.7 hPa 1.9 m/s 103.5 mm 20.5° 1017.7 hPa 1.9 m/s 103.5 mm
14:00 24.1° 1016.7 hPa 2.8 m/s 103.5 mm 24.1° 1016.7 hPa 2.8 m/s 103.5 mm
17:00 24.5° 1016.0 hPa 3.1 m/s 103.5 mm 24.5° 1016.0 hPa 3.1 m/s 103.5 mm
20:00 18.1° 1016.7 hPa 0.8 m/s 103.5 mm 18.1° 1016.7 hPa 0.8 m/s 103.5 mm
23:00 15.1° 1018.1 hPa 1.6 m/s 103.5 mm 15.1° 1018.1 hPa 1.6 m/s 103.5 mm
 06:37     20:21    Daglengte: 13:44 Woensdag 24 Aug
02:00 14.0° 1017.8 hPa 1.2 m/s 103.5 mm 14.0° 1017.8 hPa 1.2 m/s 103.5 mm
05:00 13.2° 1017.6 hPa 1.2 m/s 103.5 mm 13.2° 1017.6 hPa 1.2 m/s 103.5 mm
08:00 15.3° 1017.9 hPa 0.3 m/s 103.5 mm 15.3° 1017.9 hPa 0.3 m/s 103.5 mm
11:00 20.7° 1017.3 hPa 1.9 m/s 103.5 mm 20.7° 1017.3 hPa 1.9 m/s 103.5 mm
14:00 23.8° 1016.5 hPa 2.3 m/s 103.5 mm 23.8° 1016.5 hPa 2.3 m/s 103.5 mm
17:00 24.7° 1016.1 hPa 1.8 m/s 103.5 mm 24.7° 1016.1 hPa 1.8 m/s 103.5 mm
20:00 19.1° 1016.7 hPa 0.3 m/s 103.5 mm 19.1° 1016.7 hPa 0.3 m/s 103.5 mm
23:00 16.4° 1018.0 hPa 1.6 m/s 103.5 mm 16.4° 1018.0 hPa 1.6 m/s 103.5 mm
 06:39     20:19    Daglengte: 13:40 Donderdag 25 Aug
02:00 15.7° 1017.8 hPa 1.4 m/s 103.5 mm 15.7° 1017.8 hPa 1.4 m/s 103.5 mm
08:00 17.1° 1018.1 hPa 0.3 m/s 103.5 mm 17.1° 1018.1 hPa 0.3 m/s 103.5 mm
14:00 26.1° 1016.5 hPa 2.0 m/s 103.5 mm 26.1° 1016.5 hPa 2.0 m/s 103.5 mm
20:00 20.8° 1016.4 hPa 0.5 m/s 103.7 mm 20.8° 1016.4 hPa 0.5 m/s 103.7 mm
 06:40     20:18    Daglengte: 13:38 Vrijdag 26 Aug
02:00 17.7° 1017.4 hPa 1.8 m/s 103.7 mm 17.7° 1017.4 hPa 1.8 m/s 103.7 mm
08:00 18.8° 1016.8 hPa 1.1 m/s 103.7 mm 18.8° 1016.8 hPa 1.1 m/s 103.7 mm
14:00 28.1° 1014.6 hPa 1.8 m/s 103.8 mm 28.1° 1014.6 hPa 1.8 m/s 103.8 mm
20:00 22.4° 1014.1 hPa 1.3 m/s 104.8 mm